DateTimeUTC,F1_A11,F1_S11,BsB_S11,BsG_S11,BsR_S11,BbsB_S11,BbsG_S11,BbsR_S11,BaB_A11,BaG_A11,BaR_A11,T_S11,U_S11,P_S11,T1_A11
2020-03-21T00:00:00Z,00000380,21000600,,,,,,,,,,23.4,00.0,0627.2,31.0
2020-03-21T00:01:00Z,00000380,21000600,,,,,,,,,,23.4,00.0,0627.2,31.0
2020-03-21T00:02:00Z,00000380,21000600,,,,,,,,,,23.4,00.0,0627.2,31.0
2020-03-21T00:03:00Z,00000380,61000600,,,,,,,,,,23.4,00.0,0627.2,31.0
2020-03-21T00:04:00Z,00000380,41000600,0004.74,0002.80,0001.58,0001.17,0001.01,0000.10,0000.20,0000.09,0000.25,23.2,00.0,0628.1,31.0
2020-03-21T00:05:00Z,00000380,01000600,0005.23,0002.69,0001.22,0001.14,0001.15,0000.25,0000.20,0000.15,0000.07,23.2,00.0,0628.1,30.9
2020-03-21T00:06:00Z,00000380,01000600,0005.48,0002.78,0001.23,0000.38,0000.73,0000.52,0000.07,0000.19,0000.11,23.1,00.0,0628.1,30.9
2020-03-21T00:07:00Z,00000380,01000600,0005.23,0002.52,0001.17,0000.50,0000.43,0000.53,0000.11,0000.08,0000.04,23.1,00.0,0628.1,30.9
2020-03-21T00:08:00Z,00000380,01000600,0005.63,0003.08,0001.60,0001.15,0000.58,0000.44,0000.15,0000.08,0000.06,23.1,00.0,0628.1,30.9
2020-03-21T00:09:00Z,00000380,01000600,0004.62,0002.82,0001.82,0000.56,0000.57,0000.05,0000.23,0000.19,0000.28,23.1,00.0,0628.1,30.9
2020-03-21T00:10:00Z,00000380,01000600,0004.92,0002.87,0000.80,0000.94,0000.82,0000.27,0000.10,0000.12,-000.03,23.1,00.0,0628.2,30.9
2020-03-21T00:11:00Z,00000380,01000600,0005.11,0002.18,0001.20,0000.42,0000.55,0000.25,-000.03,-000.06,-000.05,23.1,00.0,0628.2,30.9
2020-03-21T00:12:00Z,00000380,01000600,0005.37,0003.42,0001.80,0000.51,0000.72,0000.73,0000.10,0000.17,0000.12,23.2,00.0,0628.2,31.0
2020-03-21T00:13:00Z,00000380,01000600,0004.00,0002.80,0001.15,0001.06,0000.41,0000.40,0000.21,0000.02,0000.06,23.2,00.0,0628.2,31.0
2020-03-21T00:14:00Z,00000380,01000600,0004.07,0002.46,0001.40,0000.54,0000.59,0000.64,0000.09,0000.19,0000.18,23.2,00.0,0628.3,31.0
2020-03-21T00:15:00Z,00000380,01000600,0005.05,0002.36,0001.35,0001.36,0000.49,-000.04,-000.09,0000.08,-000.13,23.2,00.0,0628.3,31.0
2020-03-21T00:16:00Z,00000380,01000600,0004.23,0002.50,0001.35,0001.19,0000.33,-000.03,0000.22,0000.09,0000.12,23.2,00.0,0628.2,31.0
2020-03-21T00:17:00Z,00000380,01000600,0004.72,0002.35,0001.35,0000.77,0000.28,0000.30,0000.03,0000.19,0000.17,23.2,00.0,0628.2,30.9
2020-03-21T00:18:00Z,00000380,01000600,0004.12,0002.30,0001.50,0001.30,0000.31,0000.47,0000.24,0000.10,0000.21,23.2,00.0,0628.1,30.9
2020-03-21T00:19:00Z,00000380,01000600,0004.05,0002.58,0002.05,0000.72,0000.74,0000.62,0000.30,0000.19,0000.01,23.2,00.0,0628.1,30.9
2020-03-21T00:20:00Z,00000380,01000600,0004.44,0002.94,0001.17,0000.23,0000.48,0000.16,0000.09,0000.28,0000.09,23.1,00.0,0628.1,30.9
2020-03-21T00:21:00Z,00000380,01000600,0004.30,0002.56,0001.41,0001.02,0000.82,0000.54,0000.26,0000.03,0000.24,23.1,00.0,0628.1,30.9
2020-03-21T00:22:00Z,00000380,01000600,0005.51,0002.64,0001.36,0000.83,0000.54,0000.37,0000.09,0000.28,0000.05,23.1,00.0,0628.1,30.9
2020-03-21T00:23:00Z,00000380,01000600,0003.67,0001.80,0001.54,0001.12,0000.58,0000.55,0000.21,-000.00,0000.21,23.1,00.0,0628.0,30.9
2020-03-21T00:24:00Z,00000380,01000600,0004.84,0002.78,0001.28,0000.89,0000.71,0000.48,0000.25,0000.26,0000.00,23.1,00.0,0628.0,30.9
2020-03-21T00:25:00Z,00000380,01000600,0005.38,0003.04,0000.87,0000.22,0000.65,0000.42,0000.20,0000.10,0000.15,23.1,00.0,0628.0,30.9
2020-03-21T00:26:00Z,00000380,01000600,0003.34,0002.39,0001.69,0000.42,0000.64,0000.53,0000.09,0000.33,0000.10,23.1,00.0,0628.1,30.9
2020-03-21T00:27:00Z,00000380,01000600,0005.60,0002.93,0001.09,0001.12,0000.65,0000.48,0000.15,0000.01,0000.11,23.1,00.0,0628.1,31.0
2020-03-21T00:28:00Z,00000380,01000600,0004.21,0002.60,0001.42,0000.65,0000.53,0000.26,0000.10,0000.12,0000.10,23.1,00.0,0628.1,30.9
2020-03-21T00:29:00Z,00000380,01000600,0005.01,0002.43,0001.23,0000.89,0000.77,0000.14,0000.16,0000.23,0000.03,23.1,00.0,0628.1,30.9
2020-03-21T00:30:00Z,00000380,01000600,0004.81,0002.30,0001.30,0000.22,0000.66,0000.21,0000.12,0000.12,0000.10,23.1,00.0,0628.1,30.9
2020-03-21T00:31:00Z,00000380,01000600,0004.93,0002.86,0001.86,0000.74,0000.82,0000.51,0000.09,-000.01,0000.18,23.1,00.0,0628.1,30.9
2020-03-21T00:32:00Z,00000380,01000600,0005.05,0002.15,0001.20,0001.30,0000.72,0000.56,0000.06,0000.18,0000.09,23.1,00.0,0628.1,30.9
2020-03-21T00:33:00Z,00000380,01000600,0003.75,0002.65,0001.32,0000.53,0000.72,0000.63,0000.24,0000.14,0000.15,23.0,00.0,0628.1,30.9
2020-03-21T00:34:00Z,00000380,01000600,0003.79,0002.75,0001.66,0001.05,0000.47,0000.62,0000.22,0000.26,0000.05,23.0,00.0,0628.1,30.9
2020-03-21T00:35:00Z,00000380,01000600,0004.50,0002.88,0001.28,0000.43,0000.76,-000.02,0000.18,0000.25,0000.13,23.0,00.0,0628.0,30.9
2020-03-21T00:36:00Z,00000380,01000600,0003.92,0001.95,0001.35,0000.32,0000.12,0000.19,0000.09,0000.10,0000.07,22.9,00.0,0628.0,30.9
2020-03-21T00:37:00Z,00000380,01000600,0004.87,0002.13,0001.58,0000.92,0000.81,0000.53,0000.25,0000.10,0000.14,22.9,00.0,0628.0,30.9
2020-03-21T00:38:00Z,00000380,01000600,0004.85,0002.18,0001.59,0000.95,0000.24,0000.39,0000.21,-000.01,0000.02,22.9,00.0,0628.0,30.9
2020-03-21T00:39:00Z,00000380,01000600,0004.79,0002.75,0001.43,0000.43,0000.79,0000.18,0000.24,0000.18,0000.26,22.9,00.0,0627.9,30.9
2020-03-21T00:40:00Z,00000380,01000600,0004.85,0002.93,0001.28,0000.38,0001.10,0000.55,0000.22,0000.29,0000.18,22.9,00.0,0627.9,30.9
2020-03-21T00:41:00Z,00000380,01000600,0005.38,0002.19,0000.75,0001.25,0000.34,0000.40,0000.13,0000.39,0000.10,22.9,00.0,0628.0,30.9
2020-03-21T00:42:00Z,00000380,01000600,0005.45,0002.33,0001.49,0000.30,0000.49,0000.13,0000.25,-000.03,0000.13,22.9,00.0,0628.0,30.9
2020-03-21T00:43:00Z,00000380,01000600,0005.60,0002.07,0000.88,0000.75,0000.23,0000.36,0000.11,0000.28,0000.15,23.0,00.0,0628.0,30.9
2020-03-21T00:44:00Z,00000380,01000600,0005.39,0002.34,0001.88,0001.11,0000.58,0000.42,0000.30,0000.29,0000.17,23.1,00.0,0628.0,31.0
2020-03-21T00:45:00Z,00000380,01000600,0004.07,0002.84,0001.33,0000.18,0000.80,0000.45,0000.19,0000.09,0000.12,23.1,00.0,0627.9,31.0
2020-03-21T00:46:00Z,00000380,01000600,0004.45,0002.98,0002.00,0000.87,0000.72,0000.37,0000.08,0000.25,0000.04,23.1,00.0,0627.9,30.9
2020-03-21T00:47:00Z,00000380,01000600,0004.33,0002.10,0001.05,0000.58,0000.52,0000.19,0000.07,0000.02,0000.11,23.1,00.0,0627.9,30.9
2020-03-21T00:48:00Z,00000380,01000600,0003.54,0002.15,0001.57,0000.86,0000.28,0000.54,0000.32,0000.23,0000.15,23.1,00.0,0627.9,30.9
2020-03-21T00:49:00Z,00000380,01000600,0004.36,0002.14,0001.98,0000.26,0000.23,0000.03,-000.23,0000.07,0000.09,23.1,00.0,0627.9,30.9
2020-03-21T00:50:00Z,00000380,01000600,0004.38,0002.50,0000.86,0000.01,0000.85,0000.35,0000.35,0000.07,0000.01,23.1,00.0,0627.9,30.9
2020-03-21T00:51:00Z,00000380,01000600,0003.58,0002.04,0001.41,0000.62,0000.97,0000.63,0000.12,0000.10,0000.15,23.0,00.0,0627.9,30.9
2020-03-21T00:52:00Z,00000380,01000600,0005.49,0002.74,0001.23,0000.72,0000.68,-000.32,-000.03,0000.03,0000.19,23.0,00.0,0627.8,30.9
2020-03-21T00:53:00Z,00000380,01000600,0004.71,0002.99,0001.55,0000.98,0000.70,0000.62,0000.18,0000.04,0000.02,23.0,00.0,0627.8,30.9
2020-03-21T00:54:00Z,00000380,01000600,0004.01,0002.68,0001.24,0001.00,0000.52,0000.06,0000.38,0000.25,0000.04,23.0,00.0,0627.8,30.9
2020-03-21T00:55:00Z,00000380,01000600,0005.47,0002.22,0001.44,0000.06,0000.88,0000.56,-000.00,0000.19,0000.15,23.0,00.0,0627.8,30.9
2020-03-21T00:56:00Z,00000380,01000600,0004.20,0002.25,0001.47,0000.30,0000.46,0000.37,0000.05,0000.28,0000.12,23.0,00.0,0627.9,30.9
2020-03-21T00:57:00Z,00000380,41000600,,,,,,,,,,23.1,00.0,0627.9,30.9
2020-03-21T00:58:00Z,00000380,61000600,,,,,,,,,,23.2,00.0,0627.0,31.0
2020-03-21T00:59:00Z,00000380,21000600,,,,,,,,,,23.3,00.0,0627.0,30.9
2020-03-21T01:00:00Z,00000380,21000600,,,,,,,,,,23.3,00.0,0627.0,31.0
2020-03-21T01:01:00Z,00000380,21000600,,,,,,,,,,23.4,00.0,0627.0,30.9
2020-03-21T01:02:00Z,00000380,21000600,,,,,,,,,,23.4,00.0,0627.0,30.9
2020-03-21T01:03:00Z,00000380,61000600,,,,,,,,,,23.4,00.0,0627.0,30.9
2020-03-21T01:04:00Z,00000380,41000600,0003.88,0002.87,0001.11,0000.89,0000.09,0000.11,0000.14,0000.27,-000.03,23.2,00.0,0627.8,30.9
2020-03-21T01:05:00Z,00000380,01000600,0004.23,0002.35,0001.49,0000.35,0000.00,0000.20,0000.10,0000.08,0000.19,23.1,00.0,0627.8,30.9
2020-03-21T01:06:00Z,00000380,01000600,0003.82,0002.60,0001.18,0000.24,0000.43,0000.11,0000.16,0000.07,0000.07,23.1,00.0,0627.8,30.9
2020-03-21T01:07:00Z,00000380,01000600,0003.76,0002.69,0001.56,0000.66,0000.86,0000.37,0000.23,0000.13,0000.08,23.1,00.0,0627.8,30.9
2020-03-21T01:08:00Z,00000380,01000600,0004.69,0002.23,0000.96,-000.15,0000.11,-000.07,0000.35,0000.02,0000.15,23.1,00.0,0627.8,30.9
2020-03-21T01:09:00Z,00000380,01000600,0003.94,0002.55,0001.00,0001.50,0000.45,-000.05,-000.02,0000.16,0000.23,23.0,00.0,0627.8,30.9
2020-03-21T01:10:00Z,00000380,01000600,0004.68,0002.03,0001.23,0000.85,0000.08,0000.34,-000.02,0000.17,-000.17,23.0,00.0,0627.8,30.9
2020-03-21T01:11:00Z,00000380,01000600,0003.88,0002.70,0001.35,0001.42,0000.10,0000.36,0000.14,0000.15,0000.18,23.1,00.0,0627.9,30.9
2020-03-21T01:12:00Z,00000380,01000600,0003.36,0002.39,0001.68,0001.12,0000.32,-000.26,0000.06,0000.04,-000.01,23.1,00.0,0627.9,31.0
2020-03-21T01:13:00Z,00000380,01000600,0003.37,0001.74,0000.69,0000.74,0000.44,0000.02,0000.18,0000.19,0000.17,23.2,00.0,0627.9,31.0
2020-03-21T01:14:00Z,00000380,01000600,0004.81,0003.17,0001.28,0000.10,0000.62,0000.10,0000.17,0000.23,-000.01,23.2,00.0,0627.8,30.9
2020-03-21T01:15:00Z,00000380,01000600,0005.07,0002.55,0001.21,-000.15,0000.73,0000.11,0000.11,0000.16,0000.26,23.1,00.0,0627.8,30.9
2020-03-21T01:16:00Z,00000380,01000600,0003.70,0002.52,0000.97,-000.34,0000.08,0000.15,0000.22,0000.14,0000.02,23.1,00.0,0627.8,30.9
2020-03-21T01:17:00Z,00000380,01000600,0004.63,0002.91,0001.25,0000.69,0000.33,0000.13,0000.17,0000.06,0000.09,23.1,00.0,0627.8,30.9
2020-03-21T01:18:00Z,00000380,01000600,0003.22,0002.62,0000.93,0000.37,0000.17,0000.03,0000.04,0000.04,0000.10,23.1,00.0,0627.8,30.9
2020-03-21T01:19:00Z,00000380,01000600,0003.87,0002.75,0000.76,0000.83,0000.17,0000.04,0000.18,0000.08,0000.16,23.1,00.0,0627.8,30.9
2020-03-21T01:20:00Z,00000380,01000600,0003.96,0002.31,0001.07,-000.16,0000.08,0000.43,0000.05,0000.21,-000.02,23.1,00.0,0627.8,30.9
2020-03-21T01:21:00Z,00000380,01000600,0004.04,0003.00,0001.05,0000.02,0000.36,0000.26,0000.03,-000.02,0000.09,23.1,00.0,0627.8,30.9
2020-03-21T01:22:00Z,00000380,01000600,0002.56,0002.10,0000.79,0000.83,0000.33,0000.08,0000.11,0000.20,-000.05,23.1,00.0,0627.7,30.9
2020-03-21T01:23:00Z,00000380,01000600,0004.04,0002.63,0001.04,0000.93,0000.01,-000.06,0000.28,-000.16,0000.25,23.1,00.0,0627.7,30.9
2020-03-21T01:24:00Z,00000380,01000600,0003.83,0002.42,0000.82,0000.61,0000.99,0000.18,0000.24,0000.32,0000.05,23.0,00.0,0627.7,30.9
2020-03-21T01:25:00Z,00000380,01000600,0003.31,0002.34,0001.20,0000.12,0000.04,0000.15,0000.10,0000.08,0000.15,23.0,00.0,0627.8,30.9
2020-03-21T01:26:00Z,00000380,01000600,0004.05,0002.06,0001.49,0000.54,0000.55,0000.61,0000.04,0000.22,0000.15,23.0,00.0,0627.8,30.9
2020-03-21T01:27:00Z,00000380,01000600,0003.85,0002.23,0000.99,0001.05,0000.69,0000.40,0000.33,0000.29,0000.05,23.1,00.0,0627.8,30.9
2020-03-21T01:28:00Z,00000380,01000600,0003.19,0002.08,0001.36,-000.08,0000.44,0000.55,0000.37,-000.01,0000.20,23.1,00.0,0627.8,31.0
2020-03-21T01:29:00Z,00000380,01000600,0003.12,0002.47,0001.12,0000.42,0000.11,0000.77,0000.06,0000.28,0000.13,23.2,00.0,0627.8,30.9
2020-03-21T01:30:00Z,00000380,01000600,0004.20,0002.23,0000.82,0000.50,-000.22,-000.08,0000.12,0000.25,0000.21,23.1,00.0,0627.8,30.9
2020-03-21T01:31:00Z,00000380,01000600,0004.06,0003.17,0000.96,0001.11,0000.08,-000.07,0000.04,0000.17,0000.01,23.1,00.0,0627.8,30.9
2020-03-21T01:32:00Z,00000380,01000600,0003.91,0002.87,0000.75,-000.41,0000.46,-000.13,0000.14,-000.01,0000.04,23.1,00.0,0627.8,31.0
2020-03-21T01:33:00Z,00000380,01000600,0003.59,0002.50,0001.04,0000.15,0000.24,0000.41,0000.23,0000.21,0000.26,23.1,00.0,0627.7,31.0
2020-03-21T01:34:00Z,00000380,01000600,0004.46,0002.01,0001.43,0000.89,0000.21,0000.38,0000.26,0000.26,0000.21,23.1,00.0,0627.7,30.9
2020-03-21T01:35:00Z,00000380,01000600,0004.20,0002.32,0000.90,0000.96,-000.08,0000.18,0000.13,0000.17,-000.14,23.1,00.0,0627.7,30.9
2020-03-21T01:36:00Z,00000380,01000600,0003.16,0002.88,0001.51,0000.88,0000.15,0000.22,0000.06,0000.01,0000.21,23.1,00.0,0627.7,30.9
2020-03-21T01:37:00Z,00000380,01000600,0004.02,0002.22,0001.03,0000.52,0000.10,-000.19,0000.23,0000.16,0000.12,23.0,00.0,0627.7,30.9
2020-03-21T01:38:00Z,00000380,01000600,0003.85,0002.37,0000.60,0000.83,0000.34,0000.32,0000.11,0000.12,0000.03,23.0,00.0,0627.7,30.9
2020-03-21T01:39:00Z,00000380,01000600,0004.05,0002.15,0000.80,0000.98,0000.03,-000.01,0000.23,0000.09,0000.13,23.0,00.0,0627.7,30.9
2020-03-21T01:40:00Z,00000380,01000600,0002.98,0002.49,0000.96,-000.04,0000.12,0000.31,0000.18,0000.23,0000.27,23.0,00.0,0627.7,30.9
2020-03-21T01:41:00Z,00000380,01000600,0003.73,0002.71,0001.39,-000.52,-000.14,0000.46,0000.25,0000.28,0000.07,23.0,00.0,0627.7,30.9
2020-03-21T01:42:00Z,00000380,01000600,0003.55,0002.35,0001.28,0000.14,0000.13,0000.67,0000.17,0000.14,0000.14,23.1,00.0,0627.8,31.0
2020-03-21T01:43:00Z,00000380,01000600,0003.94,0002.30,0001.46,0000.29,0000.06,0000.53,0000.09,0000.07,0000.07,23.1,00.0,0627.8,30.9
2020-03-21T01:44:00Z,00000380,01000600,0004.54,0002.58,0001.13,0001.13,-000.13,0000.10,0000.10,0000.20,0000.04,23.1,00.0,0627.8,30.9
2020-03-21T01:45:00Z,00000380,01000600,0003.81,0002.34,0001.09,0000.64,0000.20,0000.01,0000.10,0000.12,0000.14,23.1,00.0,0627.7,30.9
2020-03-21T01:46:00Z,00000380,01000600,0004.53,0002.79,0000.48,0000.63,0000.19,0000.04,0000.26,0000.22,0000.09,23.0,00.0,0627.7,30.9
2020-03-21T01:47:00Z,00000380,01000600,0004.24,0002.89,0001.22,0000.57,-000.25,0000.28,0000.13,0000.10,0000.19,23.0,00.0,0627.7,30.9
2020-03-21T01:48:00Z,00000380,01000600,0003.82,0002.22,0001.15,0001.15,-000.06,0000.31,0000.05,0000.05,0000.01,23.0,00.0,0627.7,30.9
2020-03-21T01:49:00Z,00000380,01000600,0001.25,0001.86,0001.04,0001.44,0000.25,0000.32,0000.28,0000.13,0000.18,23.0,00.0,0627.7,30.9
2020-03-21T01:50:00Z,00000380,01000600,0002.45,0001.76,0000.87,0000.16,0000.37,0000.54,0000.16,0000.17,-000.08,23.0,00.0,0627.7,30.9
2020-03-21T01:51:00Z,00000380,01000600,0004.58,0002.37,0000.61,0000.79,0000.34,0000.16,0000.08,0000.15,0000.18,23.0,00.0,0627.6,30.9
2020-03-21T01:52:00Z,00000380,01000600,0001.89,0002.44,0000.78,-000.21,-000.07,0000.06,0000.18,0000.12,0000.22,22.9,00.0,0627.6,30.9
2020-03-21T01:53:00Z,00000380,01000600,0003.32,0002.58,0001.59,0000.64,0000.10,0000.46,0000.25,0000.04,0000.03,22.9,00.0,0627.6,30.9
2020-03-21T01:54:00Z,00000380,01000600,0003.62,0001.96,0001.45,0000.14,-000.06,0000.38,0000.24,0000.26,0000.10,22.9,00.0,0627.6,30.9
2020-03-21T01:55:00Z,00000380,01000600,0003.21,0002.76,0001.18,0000.90,0000.74,0000.40,0000.19,0000.30,0000.22,22.9,00.0,0627.6,30.9
2020-03-21T01:56:00Z,00000380,01000600,0004.23,0002.34,0001.18,0000.30,0000.69,0000.57,0000.06,0000.21,0000.13,22.9,00.0,0627.6,30.9
2020-03-21T01:57:00Z,00000380,41000600,,,,,,,,,,23.0,00.0,0627.7,31.0
2020-03-21T01:58:00Z,00000380,61000600,,,,,,,,,,23.2,00.0,0626.8,31.0
2020-03-21T01:59:00Z,00000380,21000600,,,,,,,,,,23.3,00.0,0626.8,31.0
2020-03-21T02:00:00Z,00000380,21000600,,,,,,,,,,23.3,00.0,0626.8,31.0
2020-03-21T02:01:00Z,00000380,21000600,,,,,,,,,,23.3,00.0,0626.8,31.0
2020-03-21T02:02:00Z,00000380,21000600,,,,,,,,,,23.3,00.0,0626.8,31.0
2020-03-21T02:03:00Z,00000380,61000600,,,,,,,,,,23.3,00.0,0626.8,31.0
2020-03-21T02:04:00Z,00000380,41000600,0004.07,0002.25,0001.04,0001.42,0000.88,0000.35,0000.18,0000.16,0000.17,23.1,00.0,0627.5,30.9
2020-03-21T02:05:00Z,00000380,01000600,0003.69,0002.61,0001.75,0001.51,0000.68,0000.77,0000.22,0000.14,0000.13,23.1,00.0,0627.6,30.9
2020-03-21T02:06:00Z,00000380,01000600,0002.53,0002.61,0000.74,0000.41,0000.28,0000.49,0000.25,0000.16,0000.13,23.0,00.0,0627.5,30.9
2020-03-21T02:07:00Z,00000380,01000600,0002.70,0002.61,0001.31,0000.26,0000.37,0000.56,0000.11,0000.24,0000.13,23.0,00.0,0627.5,30.9
2020-03-21T02:08:00Z,00000380,01000600,0005.15,0002.25,0001.31,0000.63,0000.37,0000.89,0000.26,-000.12,0000.23,23.0,00.0,0627.5,30.9
2020-03-21T02:09:00Z,00000380,01000600,0003.32,0002.35,0001.33,0000.68,0000.57,0000.79,0000.07,0000.17,0000.00,23.0,00.0,0627.5,30.9
2020-03-21T02:10:00Z,00000380,01000600,0003.81,0002.29,0001.06,0000.60,0000.27,0000.88,0000.16,0000.24,0000.02,23.0,00.0,0627.5,30.9
2020-03-21T02:11:00Z,00000380,01000600,0003.01,0002.72,0001.94,-000.03,0000.61,0000.40,0000.22,0000.26,0000.22,23.1,00.0,0627.5,30.9
2020-03-21T02:12:00Z,00000380,01000600,0004.17,0002.94,0001.14,0000.58,0000.04,0000.68,0000.02,0000.09,0000.07,23.1,00.0,0627.5,31.0
2020-03-21T02:13:00Z,00000380,01000600,0002.87,0002.56,0001.40,0001.63,0000.69,0000.66,0000.20,0000.02,0000.04,23.1,00.0,0627.5,31.0
2020-03-21T02:14:00Z,00000380,01000600,0002.89,0002.71,0001.21,-000.07,0000.31,0000.88,0000.02,0000.38,0000.09,23.1,00.0,0627.4,30.9
2020-03-21T02:15:00Z,00000380,01000600,0003.19,0002.49,0001.32,0000.53,0000.08,0000.60,0000.25,0000.07,0000.28,23.1,00.0,0627.4,30.9
2020-03-21T02:16:00Z,00000380,01000600,0002.96,0003.12,0001.79,0001.36,0000.67,0000.56,0000.23,0000.16,0000.06,23.1,00.0,0627.4,30.9
2020-03-21T02:17:00Z,00000380,01000600,0002.79,0002.70,0001.53,0000.10,0000.52,0000.37,0000.13,0000.22,0000.07,23.1,00.0,0627.4,30.9
2020-03-21T02:18:00Z,00000380,01000600,0002.30,0002.92,0001.80,0000.55,0000.49,0000.40,0000.04,-000.03,-000.06,23.0,00.0,0627.4,30.9
2020-03-21T02:19:00Z,00000380,01000600,0003.29,0002.50,0001.23,0000.30,0000.56,0000.46,0000.21,0000.03,0000.16,23.0,00.0,0627.4,30.9
2020-03-21T02:20:00Z,00000380,01000600,0003.80,0002.53,0001.24,0001.50,0000.74,0000.23,0000.06,0000.03,0000.09,23.0,00.0,0627.3,30.9
2020-03-21T02:21:00Z,00000380,01000600,0003.69,0002.97,0000.96,0001.04,0000.67,0000.15,0000.19,0000.14,-000.08,23.0,00.0,0627.3,30.9
2020-03-21T02:22:00Z,00000380,01000600,0004.60,0002.10,0000.97,0000.58,0000.41,0000.31,0000.01,0000.20,0000.10,23.0,00.0,0627.3,30.9
2020-03-21T02:23:00Z,00000380,01000600,0004.20,0002.92,0001.11,0000.79,0000.12,0000.43,0000.21,-000.16,0000.20,22.9,00.0,0627.3,30.9
2020-03-21T02:24:00Z,00000380,01000600,0003.86,0001.95,0001.87,0000.63,0000.40,0000.47,0000.21,0000.15,-000.01,22.9,00.0,0627.3,30.9
2020-03-21T02:25:00Z,00000380,01000600,0004.23,0002.72,0001.44,0001.12,0000.32,0000.75,0000.15,0000.24,0000.17,22.9,00.0,0627.3,30.9
2020-03-21T02:26:00Z,00000380,01000600,0003.44,0002.50,0001.01,0000.33,0000.30,0000.13,0000.07,0000.21,0000.16,22.9,00.0,0627.3,30.9
2020-03-21T02:27:00Z,00000380,01000600,0004.52,0001.77,0001.57,0001.43,0000.49,0000.51,0000.27,0000.07,-000.03,23.0,00.0,0627.3,31.0
2020-03-21T02:28:00Z,00000380,01000600,0003.23,0002.12,0001.62,0000.27,0000.05,0000.35,-000.14,0000.06,0000.27,23.0,00.0,0627.3,31.0
2020-03-21T02:29:00Z,00000380,01000600,0003.45,0002.57,0001.53,0000.90,0000.63,0000.93,0000.24,0000.20,-000.08,23.1,00.0,0627.3,31.0
2020-03-21T02:30:00Z,00000380,01000600,0003.34,0002.23,0000.72,0000.75,0000.36,0000.38,0000.14,0000.17,0000.21,23.1,00.0,0627.4,30.9
2020-03-21T02:31:00Z,00000380,01000600,0003.79,0002.93,0001.17,0001.71,0000.29,0000.25,0000.15,0000.21,-000.00,23.0,00.0,0627.3,30.9
2020-03-21T02:32:00Z,00000380,01000600,0003.40,0002.70,0001.70,-000.05,0000.46,0000.30,-000.08,-000.06,0000.05,23.0,00.0,0627.3,30.9
2020-03-21T02:33:00Z,00000380,01000600,0003.64,0002.08,0001.64,0000.24,0000.72,0000.79,0000.25,0000.16,0000.12,23.0,00.0,0627.3,30.9
2020-03-21T02:34:00Z,00000380,01000600,0003.22,0002.73,0001.55,0000.63,0000.29,0000.67,0000.15,0000.11,0000.09,23.0,00.0,0627.3,30.9
2020-03-21T02:35:00Z,00000380,01000600,0003.21,0003.25,0001.28,0001.10,0000.34,0000.73,0000.01,-000.02,0000.00,23.0,00.0,0627.2,30.9
2020-03-21T02:36:00Z,00000380,01000600,0004.06,0002.56,0001.33,0000.41,0000.08,0000.80,0000.18,0000.25,0000.13,22.9,00.0,0627.2,30.9
2020-03-21T02:37:00Z,00000380,01000600,0002.02,0002.79,0000.89,0000.94,0000.40,0000.42,0000.14,0000.06,0000.18,22.9,00.0,0627.2,30.9
2020-03-21T02:38:00Z,00000380,01000600,0002.39,0002.73,0000.93,0000.74,0000.21,0000.73,0000.37,0000.07,0000.08,22.9,00.0,0627.2,30.9
2020-03-21T02:39:00Z,00000380,01000600,0002.56,0002.23,0001.06,0000.86,0000.55,0000.19,0000.28,0000.26,0000.19,22.9,00.0,0627.1,30.9
2020-03-21T02:40:00Z,00000380,01000600,0003.52,0002.23,0001.22,0000.85,-000.06,0000.43,0000.09,0000.36,0000.13,22.9,00.0,0627.2,30.9
2020-03-21T02:41:00Z,00000380,01000600,0002.84,0002.73,0001.09,0000.87,0000.53,0000.26,0000.19,0000.07,0000.09,22.9,00.0,0627.2,30.9
2020-03-21T02:42:00Z,00000380,01000600,0002.75,0002.72,0001.11,0000.95,0000.52,0000.30,0000.09,0000.24,0000.18,22.9,00.0,0627.2,31.0
2020-03-21T02:43:00Z,00000380,01000600,0002.53,0001.79,0001.50,0000.12,0000.02,0000.39,0000.25,0000.31,0000.19,23.0,00.0,0627.2,31.0
2020-03-21T02:44:00Z,00000380,01000600,0003.01,0002.77,0001.67,0000.63,0000.33,0000.39,0000.35,0000.11,0000.17,23.0,00.0,0627.2,31.0
2020-03-21T02:45:00Z,00000380,01000600,0003.81,0002.17,0001.36,0000.23,0000.24,0000.10,0000.10,0000.02,0000.21,23.1,00.0,0627.2,31.0
2020-03-21T02:46:00Z,00000380,01000600,0003.42,0002.83,0001.50,0000.82,0000.46,0000.64,0000.10,0000.20,-000.01,23.1,00.0,0627.2,31.0
2020-03-21T02:47:00Z,00000380,01000600,0003.49,0002.48,0001.30,0000.46,0000.35,0000.49,0000.12,0000.19,0000.05,23.1,00.0,0627.2,31.0
2020-03-21T02:48:00Z,00000380,01000600,0002.26,0002.48,0001.18,0000.60,0000.79,0000.57,0000.14,-000.04,-000.01,23.0,00.0,0627.2,30.9
2020-03-21T02:49:00Z,00000380,01000600,0002.32,0002.26,0001.42,0000.58,0000.81,0000.50,0000.17,0000.29,0000.12,23.0,00.0,0627.2,30.9
2020-03-21T02:50:00Z,00000380,01000600,0002.52,0002.16,0001.67,0000.83,0000.47,-000.06,0000.07,0000.04,0000.12,23.0,00.0,0627.2,30.9
2020-03-21T02:51:00Z,00000380,01000600,0004.20,0003.08,0001.04,0000.42,0000.21,0000.63,0000.29,0000.11,0000.08,23.0,00.0,0627.1,30.9
2020-03-21T02:52:00Z,00000380,01000600,0003.15,0002.94,0001.15,0000.25,0000.22,0000.15,0000.23,0000.21,0000.15,23.0,00.0,0627.1,30.9
2020-03-21T02:53:00Z,00000380,01000600,0003.74,0002.04,0001.76,0000.24,0000.68,0000.70,0000.14,-000.07,0000.30,23.0,00.0,0627.0,30.9
2020-03-21T02:54:00Z,00000380,01000600,0002.34,0001.35,0001.27,0000.76,0000.63,0000.03,0000.20,0000.22,-000.12,23.0,00.0,0627.0,30.9
2020-03-21T02:55:00Z,00000380,01000600,0003.85,0002.39,0001.16,-000.24,0000.18,0000.49,0000.20,0000.32,0000.28,23.0,00.0,0627.0,30.9
2020-03-21T02:56:00Z,00000380,01000600,0002.21,0002.66,0001.44,0001.26,0000.81,0000.49,0000.02,0000.13,0000.06,23.0,00.0,0627.1,30.9
2020-03-21T02:57:00Z,00000380,41000600,,,,,,,,,,23.0,00.0,0627.0,30.9
2020-03-21T02:58:00Z,00000380,61000600,,,,,,,,,,23.2,00.0,0626.2,30.9
2020-03-21T02:59:00Z,00000380,21000600,,,,,,,,,,23.3,00.0,0626.2,30.9
2020-03-21T03:00:00Z,00000380,21000600,,,,,,,,,,23.3,00.0,0626.1,30.9
2020-03-21T03:01:00Z,00000380,21000600,,,,,,,,,,23.3,00.0,0626.1,30.9
2020-03-21T03:02:00Z,00000380,21000600,,,,,,,,,,23.3,00.0,0626.1,30.9
2020-03-21T03:03:00Z,00000380,61000600,,,,,,,,,,23.3,00.0,0626.1,30.9
2020-03-21T03:04:00Z,00000380,41000600,0002.72,0001.79,0000.86,-000.14,0000.75,0000.10,-000.04,0000.07,0000.09,23.1,00.0,0626.9,30.9
2020-03-21T03:05:00Z,00000380,01000600,0003.00,0001.90,0000.64,-000.57,0000.07,0000.16,0000.06,0000.02,0000.02,23.1,00.0,0626.9,30.9
2020-03-21T03:06:00Z,00000380,01000600,0001.24,0001.45,0000.79,-000.02,0000.45,0000.38,0000.15,0000.16,0000.03,23.0,00.0,0626.9,30.9
2020-03-21T03:07:00Z,00000380,01000600,0003.08,0002.02,0000.83,-000.53,0000.06,0000.14,0000.21,0000.06,0000.30,23.0,00.0,0626.9,30.9
2020-03-21T03:08:00Z,00000380,01000600,0002.87,0001.15,0000.94,-000.66,0000.56,0000.36,0000.21,0000.17,0000.03,23.0,00.0,0626.9,30.9
2020-03-21T03:09:00Z,00000380,01000600,0003.67,0001.57,0000.95,-000.79,0000.49,0000.23,0000.16,0000.03,0000.04,23.0,00.0,0626.8,30.9
2020-03-21T03:10:00Z,00000380,01000600,0002.68,0001.72,0000.60,0000.68,0000.56,0000.32,0000.02,0000.00,-000.05,23.0,00.0,0626.9,30.9